When you browse on this site, cookies collect data to enhance your experience and personalize the content and advertising you see.
Visit our Privacy Policy to learn more. By continuing to use the site, you agree to this use of cookies and data.
  • In Czech Republic
  • List of Countries
  • For 7 days
  • Water Temperature
  • Satellite Maps
  • Weather Map
  • Weather Widgets
  • user-avatar
    Login

    Hourly Weather Yerevan

    Today, 24 May, Friday

    Time Temperature Precipitation Wind Pressure Humidity
    00:00 +19°C° 0.1 mm 1 mps 690 mmHg 61%
    01:00 +19°C° 0.1 mm 1 mps 690 mmHg 61%
    02:00 +19°C° 0.1 mm 1 mps 690 mmHg 62%
    03:00 +18°C° 0 mm 1 mps 689 mmHg 63%
    04:00 +18°C° 0.1 mm 2 mps 690 mmHg 62%
    05:00 +18°C° 0.1 mm 2 mps 690 mmHg 61%
    06:00 +19°C° 0.1 mm 2 mps 690 mmHg 60%
    07:00 +20°C° 0.1 mm 2 mps 690 mmHg 54%
    08:00 +22°C° 0.1 mm 3 mps 690 mmHg 48%
    09:00 +25°C° 0.1 mm 3 mps 690 mmHg 43%
    10:00 +26°C° 0.1 mm 3 mps 689 mmHg 40%
    11:00 +27°C° 0.1 mm 3 mps 689 mmHg 38%
    12:00 +28°C° 0.1 mm 3 mps 689 mmHg 35%
    13:00 +29°C° 0.2 mm 3 mps 689 mmHg 33%
    14:00 +29°C° 0.2 mm 2 mps 689 mmHg 32%
    15:00 +30°C° 0.2 mm 2 mps 689 mmHg 30%
    16:00 +30°C° 0.1 mm 2 mps 690 mmHg 30%
    17:00 +30°C° 0.1 mm 1 mps 690 mmHg 30%
    18:00 +30°C° 0.1 mm 1 mps 690 mmHg 31%
    19:00 +28°C° 0.1 mm 2 mps 690 mmHg 35%
    20:00 +26°C° 0.1 mm 2 mps 690 mmHg 39%
    21:00 +22°C° 0.1 mm 3 mps 690 mmHg 43%
    22:00 +23°C° 0 mm 2 mps 690 mmHg 43%
    23:00 +21°C° 0 mm 2 mps 691 mmHg 44%

    Tomorrow, 25 May, Saturday

    Time Temperature Precipitation Wind Pressure Humidity
    00:00 +21°C° 0 mm 2 mps 691 mmHg 45%
    01:00 +20°C° 0 mm 2 mps 691 mmHg 44%
    02:00 +20°C° 0 mm 2 mps 691 mmHg 43%
    03:00 +20°C° 0 mm 2 mps 691 mmHg 42%
    04:00 +20°C° 0 mm 2 mps 691 mmHg 41%
    05:00 +21°C° 0 mm 2 mps 691 mmHg 40%
    06:00 +21°C° 0 mm 2 mps 691 mmHg 38%
    07:00 +24°C° 0 mm 3 mps 691 mmHg 34%
    08:00 +26°C° 0 mm 3 mps 691 mmHg 30%
    09:00 +29°C° 0 mm 3 mps 691 mmHg 26%
    10:00 +30°C° 0 mm 4 mps 691 mmHg 24%
    11:00 +32°C° 0 mm 4 mps 691 mmHg 22%
    12:00 +34°C° 0 mm 5 mps 691 mmHg 20%
    13:00 +34°C° 0.2 mm 4 mps 691 mmHg 20%
    14:00 +34°C° 0.2 mm 4 mps 690 mmHg 20%
    15:00 +34°C° 0.2 mm 4 mps 690 mmHg 20%
    16:00 +32°C° 0.4 mm 4 mps 690 mmHg 24%
    17:00 +30°C° 0.4 mm 4 mps 689 mmHg 28%
    18:00 +28°C° 0.4 mm 4 mps 689 mmHg 32%
    19:00 +27°C° 0.1 mm 4 mps 689 mmHg 34%
    20:00 +25°C° 0.1 mm 3 mps 689 mmHg 37%
    21:00 +24°C° 0.1 mm 3 mps 690 mmHg 39%
    22:00 +22°C° 0.1 mm 3 mps 690 mmHg 42%
    23:00 +21°C° 0.1 mm 2 mps 690 mmHg 44%

    Day after tomorrow, 26 May, Sunday

    Time Temperature Precipitation Wind Pressure Humidity
    00:00 +21°C° 0.1 mm 2 mps 690 mmHg 46%
    01:00 +20°C° 0.1 mm 2 mps 690 mmHg 47%
    02:00 +20°C° 0.1 mm 2 mps 689 mmHg 48%
    03:00 +19°C° 0.1 mm 2 mps 689 mmHg 48%
    04:00 +20°C° 0.1 mm 2 mps 689 mmHg 48%
    05:00 +20°C° 0.1 mm 2 mps 689 mmHg 47%
    06:00 +21°C° 0.1 mm 2 mps 689 mmHg 47%
    07:00 +24°C° 0.1 mm 2 mps 689 mmHg 42%
    08:00 +25°C° 0.1 mm 2 mps 689 mmHg 37%
    09:00 +27°C° 0.1 mm 2 mps 689 mmHg 31%
    10:00 +28°C° 0.1 mm 2 mps 689 mmHg 30%
    11:00 +29°C° 0.1 mm 3 mps 689 mmHg 28%
    12:00 +30°C° 0.1 mm 4 mps 689 mmHg 27%
    13:00 +32°C° 0 mm 4 mps 689 mmHg 25%
    14:00 +31°C° 0 mm 3 mps 689 mmHg 24%
    15:00 +33°C° 0 mm 3 mps 688 mmHg 23%
    16:00 +31°C° 0 mm 3 mps 688 mmHg 24%
    17:00 +30°C° 0 mm 3 mps 688 mmHg 26%
    18:00 +30°C° 0 mm 2 mps 689 mmHg 27%
    19:00 +28°C° 0 mm 3 mps 689 mmHg 29%
    20:00 +26°C° 0 mm 3 mps 690 mmHg 31%
    21:00 +24°C° 0 mm 3 mps 690 mmHg 33%
    22:00 +21°C° 0 mm 3 mps 690 mmHg 38%
    23:00 +20°C° 0 mm 3 mps 690 mmHg 44%

    27 May, Monday

    Time Temperature Precipitation Wind Pressure Humidity
    00:00 +19°C° 0 mm 3 mps 690 mmHg 49%
    01:00 +18°C° 0 mm 3 mps 690 mmHg 51%
    02:00 +18°C° 0 mm 3 mps 690 mmHg 53%
    03:00 +17°C° 0 mm 2 mps 691 mmHg 55%
    04:00 +18°C° 0 mm 2 mps 691 mmHg 54%
    05:00 +18°C° 0 mm 2 mps 691 mmHg 53%
    06:00 +19°C° 0 mm 2 mps 692 mmHg 52%
    07:00 +21°C° 0 mm 2 mps 692 mmHg 46%
    08:00 +23°C° 0 mm 2 mps 692 mmHg 40%
    09:00 +25°C° 0 mm 2 mps 692 mmHg 34%
    10:00 +26°C° 0 mm 2 mps 692 mmHg 31%
    11:00 +27°C° 0 mm 2 mps 692 mmHg 28%
    12:00 +28°C° 0 mm 2 mps 692 mmHg 25%
    13:00 +29°C° 0 mm 2 mps 692 mmHg 24%
    14:00 +29°C° 0 mm 2 mps 692 mmHg 24%
    15:00 +30°C° 0 mm 2 mps 691 mmHg 23%
    16:00 +29°C° 0.1 mm 2 mps 692 mmHg 24%
    17:00 +29°C° 0.1 mm 1 mps 692 mmHg 25%
    18:00 +29°C° 0.1 mm 1 mps 692 mmHg 27%
    19:00 +27°C° 0 mm 2 mps 692 mmHg 31%
    20:00 +25°C° 0 mm 2 mps 693 mmHg 35%
    21:00 +22°C° 0 mm 3 mps 693 mmHg 39%
    22:00 +21°C° 0.1 mm 3 mps 693 mmHg 42%
    23:00 +20°C° 0.1 mm 3 mps 693 mmHg 45%

    28 May, Tuesday

    Time Temperature Precipitation Wind Pressure Humidity
    00:00 +19°C° 0.1 mm 2 mps 693 mmHg 48%
    01:00 +19°C° 0 mm 2 mps 693 mmHg 50%
    02:00 +18°C° 0 mm 2 mps 693 mmHg 52%
    03:00 +17°C° 0 mm 2 mps 693 mmHg 54%
    04:00 +18°C° 0 mm 2 mps 693 mmHg 54%
    05:00 +19°C° 0 mm 2 mps 694 mmHg 54%
    06:00 +19°C° 0 mm 2 mps 694 mmHg 54%
    07:00 +22°C° 0 mm 1 mps 694 mmHg 48%
    08:00 +23°C° 0 mm 1 mps 694 mmHg 42%
    09:00 +25°C° 0 mm 1 mps 694 mmHg 36%
    10:00 +26°C° 0 mm 1 mps 694 mmHg 33%
    11:00 +28°C° 0 mm 1 mps 694 mmHg 30%
    12:00 +29°C° 0 mm 1 mps 694 mmHg 27%
    13:00 +29°C° 0 mm 1 mps 693 mmHg 25%
    14:00 +30°C° 0 mm 1 mps 693 mmHg 24%
    15:00 +31°C° 0 mm 1 mps 693 mmHg 22%
    16:00 +30°C° 0 mm 2 mps 693 mmHg 25%
    17:00 +29°C° 0 mm 2 mps 693 mmHg 27%
    18:00 +29°C° 0 mm 2 mps 693 mmHg 29%
    19:00 +27°C° 0 mm 3 mps 694 mmHg 37%
    20:00 +25°C° 0 mm 3 mps 694 mmHg 44%
    21:00 +21°C° 0 mm 3 mps 694 mmHg 51%
    22:00 +21°C° 0 mm 3 mps 694 mmHg 54%
    23:00 +20°C° 0 mm 2 mps 694 mmHg 56%

    29 May, Wednesday

    Time Temperature Precipitation Wind Pressure Humidity
    00:00 +19°C° 0 mm 2 mps 694 mmHg 59%
    01:00 +18°C° 0 mm 2 mps 694 mmHg 59%
    02:00 +18°C° 0 mm 2 mps 694 mmHg 60%
    03:00 +17°C° 0 mm 2 mps 693 mmHg 61%
    04:00 +18°C° 0 mm 2 mps 694 mmHg 58%
    05:00 +19°C° 0 mm 1 mps 694 mmHg 56%
    06:00 +20°C° 0 mm 1 mps 694 mmHg 54%
    07:00 +22°C° 0 mm 1 mps 694 mmHg 47%
    08:00 +24°C° 0 mm 1 mps 694 mmHg 41%
    09:00 +25°C° 0 mm 1 mps 694 mmHg 35%
    10:00 +27°C° 0 mm 1 mps 694 mmHg 31%
    11:00 +28°C° 0 mm 1 mps 693 mmHg 27%
    12:00 +29°C° 0 mm 1 mps 693 mmHg 23%
    13:00 +30°C° 0 mm 1 mps 693 mmHg 22%
    14:00 +31°C° 0 mm 1 mps 693 mmHg 20%
    15:00 +31°C° 0 mm 1 mps 692 mmHg 19%
    16:00 +31°C° 0 mm 1 mps 692 mmHg 20%
    17:00 +30°C° 0 mm 1 mps 692 mmHg 22%
    18:00 +30°C° 0 mm 1 mps 692 mmHg 24%
    19:00 +27°C° 0 mm 1 mps 692 mmHg 30%
    20:00 +25°C° 0 mm 2 mps 692 mmHg 36%
    21:00 +23°C° 0 mm 2 mps 692 mmHg 43%
    22:00 +21°C° 0 mm 2 mps 692 mmHg 48%
    23:00 +20°C° 0 mm 2 mps 692 mmHg 52%
    Show more